Weather in Nur-Sultan

Kazakhstan     51˚07′41″N   71˚25′49″E
temp.,
°C
wind,
m/s
gust,
m/s
humid.,
%
clouds,
%
prec.,
mm/h
press.,
hPa
HPBL,
m
29 november, sun
sun2900:00−12˚n61194100 3.4 1032482
03:00−12˚nnw61095100 0.8 1035437
06:00−12˚nnw61195100 2.8 1038453
09:00−12˚nnw61195100 1.2 1039473
12:00−11˚nnw61094100 1.8 1041496
15:00−11˚nnw5991100 0.3 1042466
18:00−14˚nnw4894100 0.3 1045199
21:00−17˚nnw349683 0.0 104647
30 november, mon
mon3000:00−19˚n339772 0.0 104831
03:00−20˚n239975 0.0 104820
06:00−20˚n239884 0.0 105020
09:00−21˚ne2210093 0.0 105020
12:00−19˚ne129796 0.0 105195
15:00−18˚ne239679 0.0 1051127
18:00−21˚ne339940 0.0 105226
21:00−22˚ene349943 0.0 105240
1 december, tue
tue100:00−22˚ene449965 0.0 105255
03:00−22˚ne449814 0.0 105258
06:00−22˚ene45988 0.0 105273
09:00−21˚ene45950 0.0 105265
12:00−17˚ene47920 0.0 1052170
15:00−15˚ene59920 0.0 1051209
18:00−16˚ene58950 0.0 1051120
21:00−16˚ene58930 0.0 1051125
2 december, wed
wed200:00−16˚ene48920 0.0 105198
03:00−16˚ene58890 0.0 1050107
06:00−16˚ene48870 0.0 1050100
09:00−17˚ene58880 0.0 1049110
12:00−13˚ene510850 0.0 1048239
15:00−12˚ene59870 0.0 1046218
18:00−16˚ene58900 0.0 1045115
21:00−17˚ene58890 0.0 1044109
3 december, thu
thu300:00−18˚ene58880 0.0 1043111
03:00−18˚ene47860 0.0 104189
06:00−18˚ene58850 0.0 104195
09:00−18˚ene578682 0.0 1040106
12:00−15˚ene598579 0.0 1039238
15:00−15˚ne699081 0.0 1039246
18:00−17˚ene6109290 0.0 1039192
21:00−19˚ene6109284 0.0 1038172